Regional Weather Roundup
Issued by NWS

Home | Current Version | Previous Version | Text Only | Print | Product List | Glossary Off
Versions: 1 2 3 4 5 6 7 8 9 10 11 12 13 14 15 16 17 18 19 20 21 22 23 24 25 26 27 28 29 30 31 32 33 34 35 36 37 38 39 40 41 42 43 44 45 46 47 48 49 50

000
ASUS43 KMKX 261811
RWRWI

WISCONSIN REGIONAL WEATHER ROUNDUP
NATIONAL WEATHER SERVICE MILWAUKEE/SULLIVAN WI
1200 PM CST THU FEB 26 2015

NOTE: "FAIR" INDICATES FEW OR NO CLOUDS BELOW 12,000 FEET WITH NO
SIGNIFICANT WEATHER AND/OR OBSTRUCTIONS TO VISIBILITY.

WIZ001-002-006>008-014>016-023>028-261900-
NORTHWEST WISCONSIN

CITY           SKY/WX    TMP DP  RH WIND       PRES   REMARKS
SUPERIOR ARPT  SUNNY      5 -10  50 W9        30.46S WCI  -9
6HR MIN TEMP: -15; 6HR MAX TEMP:   5;

ASHLAND        CLOUDY     6  -7  54 NW7       30.41S WCI  -6
6HR MIN TEMP: -10; 6HR MAX TEMP:   7;

HAYWARD        CLOUDY     5  -9  52 VRB6      30.37S WCI  -6
6HR MIN TEMP: -24; 6HR MAX TEMP:   5;

SIREN          MOSUNNY    6 -11  45 N6        30.42F WCI  -4
6HR MIN TEMP: -15; 6HR MAX TEMP:   6;

CUMBERLAND     SUNNY      5  -9  51 N9        30.37F WCI  -9
RICE LAKE      SUNNY      5  -8  54 N6        30.41S WCI  -6
6HR MIN TEMP: -11; 6HR MAX TEMP:   5;

CHETEK         SUNNY      6  -8  53 N10       30.39F WCI  -9
6HR MIN TEMP: -10; 6HR MAX TEMP:   6;

LADYSMITH      CLOUDY     7  -6  56 NW7       30.37S WCI  -5
6HR MIN TEMP: -17; 6HR MAX TEMP:   7;

EAU CLAIRE     MOSUNNY    6  -6  57 NW8       30.40S WCI  -7
6HR MIN TEMP:  -6; 6HR MAX TEMP:   7;

MENOMONIE      SUNNY      8  -7  49 NW9       30.41F WCI  -5
6HR MIN TEMP:  -5; 6HR MAX TEMP:   8;

NEW RICHMOND   SUNNY      5  -8  53 N9        30.43S WCI  -9
6HR MIN TEMP: -10; 6HR MAX TEMP:   5;

OSCEOLA        SUNNY      5 -10  50 NW8       30.48S WCI  -8
6HR MIN TEMP:  -7; 6HR MAX TEMP:   5;

$$

WIZ003>005-009-010-017-018-261900-
NORTH CENTRAL WISCONSIN

CITY           SKY/WX    TMP DP  RH WIND       PRES   REMARKS
MANITOWISH WTR CLOUDY     3  -9  57 NW3       30.27F
6HR MIN TEMP: -29; 6HR MAX TEMP:   3;

ARBOR VITAE    MOSUNNY    4  -8  57 N10       30.27S WCI -11
6HR MIN TEMP: -21; 6HR MAX TEMP:   4;

WOODRUFF       MOSUNNY    4  -8  57 N10       30.27S WCI -11
6HR MIN TEMP: -21; 6HR MAX TEMP:   4;

RHINELANDER    SUNNY      4  -9  55 N9        30.26S WCI -10
6HR MIN TEMP: -13; 6HR MAX TEMP:   4;

EAGLE RIVER    MOSUNNY    4 -11  49 NW9       30.25S WCI -10
6HR MIN TEMP: -26; 6HR MAX TEMP:   4;

LAND O LAKES   PTSUNNY    4  -9  56 N13       30.26S WCI -13
6HR MIN TEMP: -31; 6HR MAX TEMP:   4;

PHILLIPS       PTSUNNY    4  -9  55 N8        30.29F WCI -10
6HR MIN TEMP: -24; 6HR MAX TEMP:   4;

TOMAHAWK       MOSUNNY    5  -9  51 N5        30.28F WCI  -4
6HR MIN TEMP: -24; 6HR MAX TEMP:   6;

MEDFORD        PTSUNNY    5  -8  56 N10       30.29S WCI -10
6HR MIN TEMP: -13; 6HR MAX TEMP:   5;

MERRILL        SUNNY      7  -9  48 NW5       30.29S WCI  -2
6HR MIN TEMP: -19; 6HR MAX TEMP:   7;

$$

WIZ029-030-035-036-043>047-261900-
CENTRAL WISCONSIN

CITY           SKY/WX    TMP DP  RH WIND       PRES   REMARKS
WAUSAU         SUNNY      6  -9  50 NW10      30.29S WCI  -9
6HR MIN TEMP:  -9; 6HR MAX TEMP:   6;

MOSINEE        SUNNY      7  -8  51 NW7       30.31S WCI  -5
MARSHFIELD     SUNNY      6  -8  52 NW14      30.32R WCI -11
6HR MIN TEMP:  -9; 6HR MAX TEMP:   6;

STEVENS POINT  MOSUNNY    6  -9  50 NW13      30.31F WCI -10
6HR MIN TEMP: -11; 6HR MAX TEMP:   6;

WAUPACA        PTSUNNY   13  -6  43 CALM      30.33S
6HR MIN TEMP:  -3; 6HR MAX TEMP:  13;

WAUTOMA        MOSUNNY   10  -7  46 N13       30.33S WCI  -5
6HR MIN TEMP:  -2; 6HR MAX TEMP:  10;

WISC RAPIDS    SUNNY      8  -8  48 N12       30.34S WCI  -7
6HR MIN TEMP:  -6; 6HR MAX TEMP:   8;

CAMP DOUGLAS   PTSUNNY   10  -4  52 N13       30.34F WCI  -5
$$

WIZ011>013-019>022-031-037>040-048>050-261900-
NORTHEAST WISCONSIN

CITY           SKY/WX    TMP DP  RH WIND       PRES   REMARKS
ANTIGO         SUNNY      4  -8  56 N10       30.26S WCI -11
6HR MIN TEMP: -21; 6HR MAX TEMP:   4;

SHAWANO        PTSUNNY   12  -6  44 NW6       30.32F WCI   2
6HR MIN TEMP:  -5; 6HR MAX TEMP:  12;

OCONTO         PTSUNNY    8  -5  54 NE10      30.34S WCI  -6
6HR MIN TEMP:  -6; 6HR MAX TEMP:   8;

STURGEON BAY   FAIR       5  -6  61 N13       30.34R WCI -12
6HR MIN TEMP:  -6; 6HR MAX TEMP:   5;

GREEN BAY      MOSUNNY   10  -4  53 N6        30.33S WCI   0
6HR MIN TEMP:  -3; 6HR MAX TEMP:  10;

MANITOWOC      SUNNY      9  -2  61 N17       30.31S WCI  -9
6HR MIN TEMP:  -1; 6HR MAX TEMP:   9;

APPLETON       MOSUNNY    9  -6  52 N14       30.32S WCI  -8
CLINTONVILLE   SUNNY     10  -6  48 N8        30.32S WCI  -1
OSHKOSH        SUNNY      9  -5  53 N13       30.32R WCI  -7
6HR MIN TEMP:  -1; 6HR MAX TEMP:   9;

$$

WIZ032>034-041-042-053>061-261900-
SOUTHWEST WISCONSIN

CITY           SKY/WX    TMP DP  RH WIND       PRES   REMARKS
LA CROSSE      PTSUNNY   11  -2  56 NW10      30.41S WCI  -3
6HR MIN TEMP:  -5; 6HR MAX TEMP:  11;

SPARTA         MOSUNNY   11  -4  49 N10       30.38S WCI  -2
6HR MIN TEMP: -11; 6HR MAX TEMP:  12;

VIROQUA        SUNNY      9  -6  52 N10       30.32S WCI  -6
6HR MIN TEMP:  -3; 6HR MAX TEMP:   9;

BOSCOBEL       SUNNY     14  -6  40 NE3       30.37S
6HR MIN TEMP:  -5; 6HR MAX TEMP:  14; 6HR PCP: TRACE;

PRAIRIE DU CHI SUNNY     10  -7  45 NW9       30.39R WCI  -3
6HR MIN TEMP:  -2; 6HR MAX TEMP:  10;

PLATTEVILLE    SUNNY      9  -3  56 NW9       30.32R WCI  -4
6HR MIN TEMP:  -1; 6HR MAX TEMP:   9;

$$

WIZ056-057-062-063-064-067-068-261900-
SOUTH CENTRAL WISCONSIN

CITY           SKY/WX    TMP DP  RH WIND       PRES   REMARKS
REEDSBURG      SUNNY      9  -5  52 N12G17    30.33S WCI  -6
6HR MIN TEMP:  -1; 6HR MAX TEMP:   9;

BARABOO/DELLS  MOSUNNY   10  -7  47 N7        30.31F WCI  -1
6HR MIN TEMP:  -2; 6HR MAX TEMP:  10;

LONE ROCK      SUNNY     11  -7  44 N16       30.35S WCI  -6
6HR MIN TEMP:   2; 6HR MAX TEMP:  11;

MINERAL POINT  SUNNY     14  -8  37 N12       30.29S WCI   0
MADISON        MOSUNNY   10  -5  50 N12       30.31S WCI  -5
6HR MIN TEMP:   0; 6HR MAX TEMP:  10;

MIDDLETON      SUNNY     12  -4  48 NW8       30.32S WCI   0
6HR MIN TEMP:   0; 6HR MAX TEMP:  12;

WATERTOWN      SUNNY     11  -3  54 NW13G18   30.29S WCI  -4
6HR MIN TEMP:   0; 6HR MAX TEMP:  11;

MONROE         SUNNY     10  -2  56 N12       30.27S WCI  -4
JANESVILLE     MOSUNNY   12  -4  48 N7        30.30R WCI   2
$$

WIZ051-052-058>065-066-070>072-261900-
SOUTHEAST WISCONSIN

CITY           SKY/WX    TMP DP  RH WIND       PRES   REMARKS
MILWAUKEE      PTSUNNY   14   0  53 NE14      30.27R WCI  -1
6HR MIN TEMP:   7; 6HR MAX TEMP:  14; 6HR PCP:  0.02;

WAUKESHA       NOT AVBL
MILWAUKEE/TIMM SUNNY     12  -4  48 N12       30.29R WCI  -2
RACINE         PTSUNNY   15   4  61 N16       30.28R WCI  -1
6HR MIN TEMP:   9; 6HR MAX TEMP:  15; 6HR PCP: TRACE;

BURLINGTON     MOSUNNY   13  -4  45 NW13G21   30.27R WCI  -1
6HR MIN TEMP:   6; 6HR MAX TEMP:  15;

KENOSHA        PTSUNNY   14   2  58 N10       30.26R WCI   1
6HR MIN TEMP:   9; 6HR MAX TEMP:  15; 6HR PCP: TRACE;

FOND DU LAC    SUNNY      9  -6  50 N14       30.32R WCI  -7
6HR MIN TEMP:   0; 6HR MAX TEMP:   9;

SHEBOYGAN      SUNNY     10  -6  48 N18       30.29R WCI  -8
6HR MIN TEMP:   0; 6HR MAX TEMP:  11;

WEST BEND      SUNNY     10  -6  48 N7        30.28R WCI   0
JUNEAU         SUNNY      9  -4  55 N14G20    30.30S WCI  -8
6HR MIN TEMP:  -2; 6HR MAX TEMP:   9;

$$

LSZ147-162-261900-
LAKE SUPERIOR

STATION/POSITION TIME  TEMP    WIND        PRES    WAVE
                       AIR SEA DIR/SP/G            HT/PER
                 (UTC) (F)     (DEG/KT/KT) (MB)    (FT/S)
DEVILS ISLAND    1800    2     310/  7/ 10 1032.3S
PORT WING        1700    4     310/  7/ 12 1030.8
SAXON HARBOR     1740    5     330/  7/  9 1030.1R
$$

LMZ867-665-643>646-261900-
LAKE MICHIGAN

STATION/POSITION TIME  TEMP    WIND        PRES    WAVE
                       AIR SEA DIR/SP/G            HT/PER



USA.gov is the U.S. government's official web portal to all federal, state and local government web resources and services.